STARLINK-4448, 53504

Orbit data source: Space-Track

STARLINK-4448, 53504 is a payload satellite owned by SpaceX/Seattle (US) in SSO that was launched on Fri, 12 Aug 2022 UTC via an FALCON 9 launch vehicle from the Air Force Western Test Range (AFWTR). Payload-class satellites include a variety of spacecraft equipped with specific instruments for various scientific and technological missions. These include communications satellites like Starlink; space stations such as the ISS; scientific satellites like the Hubble; Earth observation satellites from companies like Planet Labs, Umbra, and HawkEye 360; GPS; miniature CubeSats for education and research; and military/defense satellites.

Loading next visibility...
Identifier
53504, 2022-099AR
Orbit
SSO
Country
Flag of USUS
Related business
Manufacturer
SpaceX/Seattle
Mission
Operational Commercial Communications
Bus & Motor
STARLINK, Unknown motor
Mass
300 kg wet, ~275 kg dry
Launch date (UTC)
2022-08-12 (3 years ago)
Launch vehicle
FALCON 9
Launch site
Air Force Western Test Range (AFWTR)
Object type
Payload
Rocket body
Debris
Shape & HBR
Box + 1 Pan, 10.1 m
Radar Cross Section
13.562 m², Large (>1 m²)

Expand to show TLE details & history
Last TLE update: 7 hours ago

TLE from 7 hours ago
0 STARLINK-4448
1 53504U 22099AR  25293.57069068  .00001150  00000-0  94032-4 0  9990
2 53504  97.6036  53.0264 0001882 197.8057 162.3101 15.01263153174964
Epoch: 2025-10-20T13:41Z
TLE epoch observation values (Epoch: 2025-10-20T13:41:47.674Z)
Latitude
-0.00011°
Longitude
178.30667°
Altitude
567.304 km
Speed
7.577 km/s
True Right ascension
03h 32m 06s
True Declination
0° 00' 00"
Sunlit
Object was in full shadow at epoch
Visualization orbit readout
Latitude
Unknown
Longitude
Unknown
Altitude
Unknown
Speed
Unknown
Apparent Right ascension
Unknown
Apparent Declination
Unknown
Sunlit
N/A
Visualization observer readout
Local Sidereal Time
15:13:25
Azimuth
Unknown
Elevation
Unknown
Doppler factor
Unknown
Orbital elements
Apogee altitude
561.305 km
Perigee altitude
558.694 km
Semi-major axis
6,938.136 km
Eccentricity
0.00019
Inclination
97.6036°
RAAN
53.0264°
Arg. of periapsis
197.8057°
True anomaly
162.31665°
Mean anomaly
162.3101°
Eccentric anomaly
162.31338°
Mean motion
3.7556 °/min
Orbital period
95.86 mins
BSTAR
0.000094032
Loading maneuver chart data...
Computing Atmospheric mass density...
Loading historical data...
Loading historical data...
Loading historical data...
Loading historical data...
Loading historical data...
Loading historical data...
Loading historical data...

Documentation

Showing up to 5 results
|